Regional Weather Roundup
Issued by NWS

Home | Current Version | Previous Version | Text Only | Print | Product List | Glossary Off
Versions: 1 2 3 4 5 6 7 8 9 10 11 12 13 14 15 16 17 18 19 20 21 22 23 24 25 26 27 28 29 30 31 32 33 34 35 36 37 38 39 40 41 42 43 44 45 46 47 48 49 50

000
ASUS45 KBOI 190010
RWRID
WEATHER ROUNDUP FOR IDAHO
NATIONAL WEATHER SERVICE BOISE ID
600 PM MDT SAT APR 18 2015

NOTE: "FAIR" INDICATES FEW OR NO CLOUDS BELOW 12000 FEET
WITH NO SIGNIFICANT WEATHER AND/OR OBSTRUCTIONS TO VISIBILITY

IDZ012-014-190100-
SOUTHWEST IDAHO


CITY           SKY/WX    TMP DP  RH WIND       PRES   REMARKS
BOISE          SUNNY     72  23  16 NW24G30   30.03F
CALDWELL       SUNNY     72  28  20 NW20      30.06F
MOUNTAIN HOME  SUNNY     70  26  19 NW28G35   30.01F
$$

IDZ016-017-190100-
SOUTHCENTRAL IDAHO


CITY           SKY/WX    TMP DP  RH WIND       PRES   REMARKS
BURLEY         SUNNY     67  29  24 W17G23    30.00F
JEROME         SUNNY     68  23  18 SW26G32   30.02S
TWIN FALLS     SUNNY     68  25  19 W24G31    30.03F
$$

IDZ019>023-190100-
SOUTHEAST IDAHO


CITY           SKY/WX    TMP DP  RH WIND       PRES   REMARKS
IDAHO FALLS    SUNNY     67  15  13 N16G26    30.00S
POCATELLO      MOSUNNY   69  23  17 W9        29.99S
REXBURG        SUNNY     65  18  16 N16G23    30.00S
$$

IDZ006-010-011-018-031-032-190100-
CENTRAL IDAHO MOUNTAINS


CITY           SKY/WX    TMP DP  RH WIND       PRES   REMARKS
MCCALL         SUNNY     58  22  24 N17G25    30.14F
HAILEY         MOSUNNY   70  14  11 NW12      30.02F
STANLEY          N/A     59  18  20 NW7G16    30.13F
SALMON         SUNNY     66  18  15 N17       30.04S
CHALLIS        SUNNY     65  13  13 NW10      30.06F
$$

IDZ002-004-006-007-026-190100-
NORTHERN IDAHO


CITY           SKY/WX    TMP DP  RH WIND       PRES   REMARKS
LEWISTON       LGT RAIN  70  24  17 W13G20    30.18F
LOWELL           N/A     67  33  28 CALM      30.15F
COEUR D`ALENE  SUNNY     66  25  20 NW6       30.16F
MULLAN PASS    SUNNY     49  16  26 MISG      30.21S
$$


USA.gov is the U.S. government's official web portal to all federal, state and local government web resources and services.